Weather History for KWMC - September, 2013

Change the Weather History Date:

Sunday, September 15, 2013

  Actual Average Record
Temperature  
Mean Temperature 75 °F 61 °F  
Max Temperature 93 °F 81 °F 95 °F (1937)
Min Temperature 57 °F 40 °F 26 °F (1970)
Degree Days  
Heating Degree Days 0 5  
Month to date heating degree days 2 53  
Since 1 July heating degree days 2 83  
Cooling Degree Days 10 1  
Month to date cooling degree days 76 25  
Year to date cooling degree days 757 535  
Growing Degree Days 25 (Base 50)    
Moisture  
Dew Point 40 °F    
Average Humidity 42    
Maximum Humidity 72    
Minimum Humidity 12    
Precipitation  
Precipitation 0.00 in 0.01 in 0.83 in (1976)
Month to date precipitation 0.39 0.17  
Year to date precipitation 2.80 5.53  
Snow  
Snow 0.00 in 0.00 in 0.00 in (1877)
Month to date snowfall 0.0 0.0  
Since 1 July snowfall T 0.0  
Since 1 September snowfall 0.0 0.0  
Snow Depth 0.00 in    
Sea Level Pressure  
Sea Level Pressure 29.77 in    
Wind  
Wind Speed 9 mph (ESE)    
Max Wind Speed 22 mph    
Max Gust Speed 29 mph    
Visibility 10 miles    
Events      
T = Trace of Precipitation, MM = Missing Value Source: NWS Daily Summary

Daily Weather History Graph

Daily Weather History Graph

Search for Another Location

Airport or City:

Trip Planner

Search our weather history database for the weather conditions in past years. The results will help you decide how hot, cold, wet, or windy it might be!

Date:

Astronomy

Sep. 15, 2013 Rise Set
Actual Time 6:32 AM PDT 6:59 PM PDT
Civil Twilight 6:04 AM PDT 7:27 PM PDT
Nautical Twilight 5:32 AM PDT 7:59 PM PDT
Astronomical Twilight 4:58 AM PDT 8:32 PM PDT
Moon 4:31 PM PDT (9/15) 2:13 AM PDT (9/15)
Length of Visible Light 13h 22m
Length of Day
12h 27m
Waxing Gibbous, 83% of the Moon is Illuminated
Sep 15
Waxing Gibbous
Sep 19
Full
Sep 26
Last Quarter
Oct 4
New
Oct 11
First Quarter

Hourly Weather History & Observations

Time (PDT) Temp. Dew Point Humidity Pressure Visibility Wind Dir Wind Speed Gust Speed Precip Events Conditions
12:56 AM 64.0 °F 48.9 °F 58% 29.78 in 10.0 mi NE 9.2 mph - N/A   Clear
1:56 AM 62.1 °F 48.9 °F 62% 29.78 in 10.0 mi East 8.1 mph - N/A   Clear
2:56 AM 61.0 °F 48.9 °F 64% 29.80 in 10.0 mi East 4.6 mph - N/A   Clear
3:56 AM 61.0 °F 48.9 °F 64% 29.79 in 10.0 mi ENE 9.2 mph - N/A   Clear
4:56 AM 60.1 °F 48.9 °F 67% 29.80 in 10.0 mi NE 10.4 mph - N/A   Clear
5:56 AM 61.0 °F 48.9 °F 64% 29.80 in 10.0 mi ENE 11.5 mph - N/A   Clear
6:56 AM 57.9 °F 48.9 °F 72% 29.82 in 10.0 mi East 10.4 mph - N/A   Clear
7:56 AM 63.0 °F 48.9 °F 60% 29.82 in 10.0 mi ENE 11.5 mph - N/A   Clear
8:56 AM 68.0 °F 50.0 °F 52% 29.81 in 10.0 mi ENE 8.1 mph - N/A   Clear
9:56 AM 75.0 °F 48.0 °F 38% 29.81 in 10.0 mi Variable 5.8 mph - N/A   Clear
10:56 AM 78.1 °F 48.0 °F 35% 29.79 in 10.0 mi NE 8.1 mph - N/A   Mostly Cloudy
11:56 AM 84.0 °F 45.0 °F 25% 29.77 in 10.0 mi ENE 8.1 mph - N/A   Clear
12:56 PM 89.1 °F 37.0 °F 16% 29.74 in 10.0 mi SSE 12.7 mph 19.6 mph N/A   Clear
1:56 PM 87.1 °F 39.0 °F 18% 29.73 in 10.0 mi SE 11.5 mph 21.9 mph N/A   Partly Cloudy
2:56 PM 88.0 °F 37.0 °F 16% 29.70 in 10.0 mi SSE 11.5 mph 19.6 mph N/A   Mostly Cloudy
3:21 PM 91.4 °F 37.4 °F 15% 29.85 in 10.0 mi SSW 16.1 mph 24.2 mph N/A   Mostly Cloudy
3:56 PM 91.0 °F 34.0 °F 13% 29.69 in 10.0 mi SSW 15.0 mph 25.3 mph N/A   Clear
4:56 PM 89.1 °F 30.9 °F 12% 29.68 in 10.0 mi SSW 13.8 mph 23.0 mph N/A   Clear
5:56 PM 87.1 °F 34.0 °F 15% 29.69 in 10.0 mi SW 12.7 mph 23.0 mph N/A   Clear
6:56 PM 81.0 °F 30.9 °F 16% 29.70 in 10.0 mi SSW 8.1 mph - N/A   Clear
7:56 PM 72.0 °F 30.0 °F 21% 29.73 in 10.0 mi WSW 15.0 mph - N/A   Clear
8:56 PM 75.0 °F 28.9 °F 18% 29.74 in 10.0 mi West 8.1 mph - N/A   Clear
9:56 PM 70.0 °F 28.9 °F 22% 29.77 in 10.0 mi West 9.2 mph - N/A   Clear
10:56 PM 66.0 °F 28.9 °F 25% 29.80 in 10.0 mi Calm Calm - N/A   Clear
11:56 PM 63.0 °F 30.9 °F 30% 29.80 in 10.0 mi SE 3.5 mph - N/A   Clear